| time (UTC) | temp F | wind direction | speed MPH | gust MPH | rain 1hr in | rain 24hr in | rain mn in | humidity % | barometer mb |
| 20260508183004 | 55 | 269 | 5.0 | 15.0 | 0.00 | 0.03 | 0.03 | 80 | 1009.6 |
| 20260508181512 | 54 | 235 | 6.0 | 12.0 | 0.00 | 0.03 | 0.03 | 82 | 1009.7 |
| 20260508180101 | 54 | 263 | 4.0 | 14.0 | 0.00 | 0.03 | 0.03 | 82 | 1010.0 |
| 20260508174600 | 54 | 222 | 4.0 | 15.0 | 0.00 | 0.03 | 0.03 | 81 | 1010.3 |
| 20260508173056 | 53 | 240 | 4.0 | 10.0 | 0.00 | 0.03 | 0.03 | 82 | 1010.5 |
| 20260508171556 | 54 | 262 | 5.0 | 16.0 | 0.00 | 0.03 | 0.03 | 77 | 1010.4 |
| 20260508170055 | 55 | 246 | 6.0 | 14.0 | 0.00 | 0.03 | 0.03 | 74 | 1010.5 |
| 20260508164556 | 55 | 263 | 5.0 | 13.0 | 0.00 | 0.03 | 0.03 | 74 | 1010.4 |
| 20260508163054 | 56 | 252 | 4.0 | 13.0 | 0.00 | 0.03 | 0.03 | 72 | 1010.4 |
| 20260508161558 | 56 | 219 | 5.0 | 12.0 | 0.00 | 0.03 | 0.03 | 73 | 1010.4 |
| 20260508160052 | 56 | 254 | 6.0 | 13.0 | 0.00 | 0.03 | 0.03 | 73 | 1010.5 |
| 20260508154606 | 55 | 281 | 3.0 | 9.0 | 0.00 | 0.03 | 0.03 | 75 | 1010.5 |
| 20260508153046 | 55 | 327 | 5.0 | 11.0 | 0.00 | 0.03 | 0.03 | 74 | 1010.4 |
| 20260508151545 | 55 | 317 | 5.0 | 14.0 | 0.00 | 0.03 | 0.03 | 75 | 1010.7 |
| 20260508150055 | 54 | 241 | 4.0 | 10.0 | 0.00 | 0.03 | 0.03 | 75 | 1010.6 |
| 20260508144541 | 54 | 291 | 1.0 | 11.0 | 0.00 | 0.03 | 0.03 | 76 | 1010.6 |
| 20260508143053 | 53 | 234 | 5.0 | 11.0 | 0.00 | 0.03 | 0.03 | 75 | 1010.7 |
| 20260508141537 | 53 | 300 | 2.0 | 12.0 | 0.00 | 0.03 | 0.03 | 77 | 1010.6 |
| 20260508140042 | 52 | 281 | 3.0 | 9.0 | 0.00 | 0.03 | 0.03 | 78 | 1010.8 |
| 20260508134533 | 51 | 249 | 5.0 | 12.0 | 0.00 | 0.03 | 0.03 | 77 | 1010.9 |
| 20260508133031 | 51 | 261 | 3.0 | 10.0 | 0.00 | 0.03 | 0.03 | 79 | 1011.0 |
| 20260508131529 | 50 | 289 | 3.0 | 9.0 | 0.00 | 0.03 | 0.03 | 79 | 1011.0 |
| 20260508130127 | 50 | 331 | 4.0 | 11.0 | 0.00 | 0.03 | 0.03 | 78 | 1011.2 |
| 20260508124524 | 49 | 256 | 4.0 | 9.0 | 0.00 | 0.03 | 0.03 | 80 | 1011.1 |
| 20260508123023 | 48 | 262 | 2.0 | 8.0 | 0.00 | 0.03 | 0.03 | 82 | 1011.1 |
| 20260508121521 | 48 | 271 | 3.0 | 9.0 | 0.00 | 0.03 | 0.03 | 84 | 1010.9 |
| 20260508120020 | 47 | 258 | 2.0 | 8.0 | 0.00 | 0.03 | 0.03 | 86 | 1010.8 |
| 20260508114519 | 47 | 274 | 1.0 | 6.0 | 0.01 | 0.03 | 0.03 | 87 | 1010.5 |
| 20260508113019 | 46 | 271 | 1.0 | 6.0 | 0.01 | 0.03 | 0.03 | 88 | 1010.6 |
| 20260508111519 | 46 | 238 | 1.0 | 7.0 | 0.03 | 0.03 | 0.03 | 87 | 1010.4 |
| 20260508110017 | 46 | 253 | 2.0 | 10.0 | 0.03 | 0.03 | 0.03 | 88 | 1010.5 |
| 20260508104516 | 46 | 251 | 3.0 | 9.0 | 0.02 | 0.02 | 0.02 | 87 | 1010.3 |
| 20260508103019 | 46 | 299 | 2.0 | 14.0 | 0.02 | 0.02 | 0.02 | 86 | 1010.4 |
| 20260508101512 | 47 | 276 | 2.0 | 7.0 | 0.00 | 0.00 | 0.00 | 82 | 1010.4 |
| 20260508100020 | 46 | 260 | 2.0 | 8.0 | 0.00 | 0.00 | 0.00 | 83 | 1010.2 |
| 20260508094510 | 45 | 251 | 1.0 | 6.0 | 0.00 | 0.00 | 0.00 | 85 | 1010.2 |
| 20260508093010 | 45 | 253 | 1.0 | 4.0 | 0.00 | 0.00 | 0.00 | 85 | 1010.4 |
| 20260508091506 | 45 | 270 | 3.0 | 8.0 | 0.00 | 0.00 | 0.00 | 84 | 1010.6 |
| 20260508090006 | 45 | 280 | 3.0 | 7.0 | 0.00 | 0.00 | 0.00 | 84 | 1010.6 |
| 20260508084504 | 45 | 280 | 2.0 | 8.0 | 0.00 | 0.00 | 0.00 | 84 | 1010.7 |
| 20260508083003 | 45 | 240 | 1.0 | 9.0 | 0.00 | 0.00 | 0.00 | 85 | 1010.7 |
| 20260508081504 | 45 | 246 | 2.0 | 7.0 | 0.00 | 0.00 | 0.00 | 84 | 1010.6 |
| 20260508080112 | 46 | 254 | 1.0 | 9.0 | 0.00 | 0.00 | 0.00 | 84 | 1010.7 |
| 20260508074604 | 46 | 271 | 2.0 | 9.0 | 0.00 | 0.00 | 0.00 | 83 | 1010.9 |
| 20260508073058 | 46 | 257 | 4.0 | 10.0 | 0.00 | 0.00 | 0.00 | 82 | 1010.8 |
| 20260508071552 | 47 | 241 | 3.0 | 10.0 | 0.00 | 0.00 | 0.00 | 80 | 1010.9 |
| 20260508070052 | 48 | 273 | 7.0 | 17.0 | 0.00 | 0.00 | 0.00 | 76 | 1011.0 |
| 20260508064555 | 48 | 238 | 5.0 | 14.0 | 0.00 | 0.00 | 0.00 | 74 | 1010.9 |
| 20260508063048 | 47 | 277 | 3.0 | 7.0 | 0.00 | 0.00 | 0.00 | 74 | 1011.0 |
| 20260508061545 | 47 | 254 | 2.0 | 5.0 | 0.00 | 0.00 | 0.00 | 75 | 1011.1 |
| 20260508060042 | 47 | 269 | 1.0 | 4.0 | 0.00 | 0.00 | 0.00 | 76 | 1011.1 |
| 20260508054546 | 47 | 261 | 0.0 | 3.0 | 0.00 | 0.00 | 0.00 | 76 | 1011.1 |
| 20260508053041 | 47 | 250 | 0.0 | 3.0 | 0.00 | 0.00 | 0.00 | 75 | 1011.4 |
| 20260508051539 | 47 | 254 | 1.0 | 3.0 | 0.00 | 0.00 | 0.00 | 74 | 1011.6 |
| 20260508050049 | 48 | 259 | 0.0 | 4.0 | 0.00 | 0.00 | 0.00 | 74 | 1011.5 |
| 20260508044533 | 48 | 262 | 1.0 | 6.0 | 0.00 | 0.00 | 0.00 | 74 | 1011.6 |
| 20260508043031 | 48 | 263 | 1.0 | 6.0 | 0.00 | 0.00 | 0.00 | 73 | 1011.5 |
| 20260508041529 | 48 | 282 | 2.0 | 7.0 | 0.00 | 0.00 | 0.00 | 73 | 1011.6 |
| 20260508040041 | 47 | 260 | 2.0 | 6.0 | 0.00 | 0.00 | 0.00 | 73 | 1011.6 |
| 20260508034537 | 47 | 272 | 2.0 | 7.0 | 0.00 | 0.00 | 0.00 | 72 | 1011.7 |
| 20260508033025 | 47 | 266 | 1.0 | 7.0 | 0.00 | 0.00 | 0.00 | 73 | 1011.8 |
| 20260508031524 | 45 | 225 | 1.0 | 4.0 | 0.00 | 0.00 | 0.00 | 76 | 1011.7 |
| 20260508030025 | 43 | 299 | 0.0 | 0.0 | 0.00 | 0.00 | 0.00 | 81 | 1011.8 |
| 20260508024526 | 43 | 299 | 0.0 | 0.0 | 0.00 | 0.00 | 0.00 | 81 | 1011.8 |
| 20260508023024 | 43 | 299 | 0.0 | 0.0 | 0.00 | 0.00 | 0.00 | 79 | 1011.7 |
| 20260508021523 | 44 | 299 | 0.0 | 0.0 | 0.00 | 0.00 | 0.00 | 78 | 1011.5 |
| 20260508020023 | 44 | 299 | 0.0 | 0.0 | 0.00 | 0.00 | 0.00 | 77 | 1011.5 |
| 20260508014522 | 44 | 299 | 0.0 | 0.0 | 0.00 | 0.00 | 0.00 | 74 | 1011.3 |
| 20260508013021 | 45 | 299 | 0.0 | 0.0 | 0.00 | 0.00 | 0.00 | 72 | 1011.4 |
| 20260508011522 | 46 | 299 | 0.0 | 0.0 | 0.00 | 0.00 | 0.00 | 68 | 1011.2 |
| 20260508010021 | 48 | 299 | 0.0 | 0.0 | 0.00 | 0.00 | 0.00 | 63 | 1011.1 |
| 20260508004521 | 50 | 299 | 0.0 | 0.0 | 0.00 | 0.00 | 0.00 | 59 | 1011.1 |
| 20260508003020 | 51 | 299 | 0.0 | 2.0 | 0.00 | 0.00 | 0.00 | 59 | 1011.1 |
| 20260508001620 | 51 | 328 | 3.0 | 8.0 | 0.00 | 0.00 | 0.00 | 52 | 1010.9 |
| 20260508000018 | 52 | 315 | 4.0 | 9.0 | 0.00 | 0.00 | 0.00 | 52 | 1010.8 |
| 20260507234530 | 53 | 284 | 3.0 | 11.0 | 0.00 | 0.00 | 0.00 | 52 | 1010.7 |
| 20260507233022 | 53 | 309 | 2.0 | 11.0 | 0.00 | 0.00 | 0.00 | 51 | 1010.7 |
| 20260507231517 | 53 | 277 | 5.0 | 14.0 | 0.00 | 0.00 | 0.00 | 50 | 1010.6 |
| 20260507230018 | 54 | 313 | 4.0 | 13.0 | 0.00 | 0.00 | 0.00 | 49 | 1010.8 |
| 20260507224515 | 54 | 305 | 7.0 | 16.0 | 0.00 | 0.00 | 0.00 | 49 | 1010.8 |
| 20260507223015 | 55 | 274 | 5.0 | 13.0 | 0.00 | 0.00 | 0.00 | 49 | 1010.7 |
| 20260507221513 | 54 | 330 | 7.0 | 14.0 | 0.00 | 0.00 | 0.00 | 49 | 1010.8 |
| 20260507220013 | 54 | 294 | 3.0 | 12.0 | 0.00 | 0.00 | 0.00 | 52 | 1010.7 |
| 20260507214512 | 53 | 286 | 3.0 | 14.0 | 0.00 | 0.00 | 0.00 | 56 | 1010.6 |
| 20260507213020 | 53 | 347 | 4.0 | 18.0 | 0.00 | 0.00 | 0.00 | 57 | 1010.5 |
| 20260507211511 | 53 | 311 | 4.0 | 13.0 | 0.00 | 0.00 | 0.00 | 58 | 1010.5 |
| 20260507210011 | 53 | 331 | 8.0 | 15.0 | 0.00 | 0.00 | 0.00 | 61 | 1010.3 |
| 20260507204510 | 53 | 276 | 6.0 | 11.0 | 0.00 | 0.00 | 0.00 | 61 | 1010.2 |
| 20260507203009 | 53 | 224 | 6.0 | 15.0 | 0.00 | 0.00 | 0.00 | 57 | 1010.0 |
| 20260507201508 | 54 | 290 | 6.0 | 14.0 | 0.00 | 0.00 | 0.00 | 54 | 1010.0 |
| 20260507200010 | 53 | 246 | 6.0 | 15.0 | 0.00 | 0.00 | 0.00 | 57 | 1009.9 |
| 20260507194521 | 54 | 253 | 5.0 | 16.0 | 0.00 | 0.00 | 0.00 | 52 | 1010.0 |
| 20260507193007 | 54 | 315 | 5.0 | 12.0 | 0.00 | 0.00 | 0.00 | 55 | 1010.2 |
| 20260507191504 | 54 | 319 | 6.0 | 12.0 | 0.00 | 0.00 | 0.00 | 53 | 1010.2 |
| 20260507190116 | 54 | 309 | 2.0 | 11.0 | 0.00 | 0.00 | 0.00 | 57 | 1010.2 |
| 20260507184502 | 54 | 264 | 5.0 | 13.0 | 0.00 | 0.00 | 0.00 | 54 | 1010.4 |